Location: Unspecified
(42.2730°N, 83.7130°W)
Time: 13:42:10
(UTC+00:00)

Meteor 1-5 Rocket - Pass Details

Date: 14 December 2025
Orbit: 788 x 913 km, 81.2° (Epoch: 17 January)

Event Time Altitude Azimuth Distance (km) Brightness Sun altitude
Rises 12:07:32 0° 183° (S) 3,334 7.6 -8.8°
Reaches altitude 10° 12:09:56 10° 182° (S) 2,390 6.9 -8.4°
Maximum altitude 12:15:18 76° 97° (E) 826 4.4 -7.5°
Drops below altitude 10° 12:20:36 10° 13° (NNE) 2,362 6.4 -6.6°
Sets 12:22:58 0° 12° (NNE) 3,293 7.1 -6.2°
